Location: Heisede
(52.2582°N, 9.8523°E)
Time: 00:39:03
(UTC+00:00)

GRACE-FO 1 - Pass Details

Date: 13 January 2026
Orbit: 447 x 461 km, 89.0° (Epoch: 18 February)

Event Time Altitude Azimuth Distance (km) Brightness Sun altitude
Rises 06:32:07 0° 182° (S) 2,448 8.5 -7.8°
Reaches altitude 10° 06:34:09 10° 184° (S) 1,584 7.5 -7.5°
Maximum altitude 06:37:34 77° 269° (W) 473 4.4 -7.0°
Drops below altitude 10° 06:41:03 10° 357° (N) 1,608 6.9 -6.5°
Sets 06:43:08 0° 359° (N) 2,490 7.9 -6.2°
